O3B FM20

Last updated on Sat Jul 18 2026 00:03:21 GMT+0000 (Coordinated Universal Time)

1 44112U 19020A 26198.59535920 -.00000025 00000+0 00000+0 0 9994 2 44112 0.0527 355.7671 0002349 112.7815 251.4729 5.00115654133087
UTC large
Height (km)
Speed (km/s)
/
Latitude / Longitude
Inclination (degrees)
Orbital Period (minutes)
Azimuth
Elevation
Range (km)
Doppler Factor

Next 0 passes for location: London (51.5072 / 0.1276)

No passes found over London.
O3B FM20